Location: Kazanice
(53.5528°N, 19.7258°E)
Time: 11:41:30
(UTC+01:00)

ISS - Pass Details

Date: 01 February 2019
Orbit: 403 x 411 km, 51.6° (Epoch: 21 February)

Event Time Altitude Azimuth Distance (km) Brightness Sun altitude
Rises 18:54:59 0° 275° (W) 2,339 1.5 -22.5°
Reaches altitude 10° 18:57:06 10° 270° (W) 1,479 0.1 -22.9°
Enters shadow 18:59:34 40° 238° (WSW) 624 -2.6 -23.2°
